Location: Saint-Denis
(20.8800°S, 55.4481°E)
Time: 14:03:10
(UTC+04:00)

VELOX 1 - Pass Details

Date: 15 June 2023
Orbit: 614 x 626 km, 98.4° (Epoch: 28 September)

Event Time Altitude Azimuth Distance (km) Brightness Sun altitude
Rises 18:38:24 0° 4° (N) 2,880 ? -12.4°
Reaches altitude 10° 18:40:36 10° 359° (N) 1,979 ? -12.9°
Maximum altitude 18:44:48 55° 281° (WNW) 750 ? -13.8°
Drops below altitude 10° 18:49:04 10° 203° (SSW) 1,994 ? -14.7°
Sets 18:51:19 0° 198° (SSW) 2,913 ? -15.2°
